Hourly Data Report for October 22, 2016

All times are specified in Local Standard Time (LST). Add 1 hour to adjust for Daylight Saving Time where and when it is observed.

PETAWAWA AWOS 2
ONTARIO

45°57'00.000" N
77°19'00.000" W
130.10 m
6106396
71625
YWA

Download Data

Hourly Data (October 2016)
Hourly Data Report for October 22, 2016
Temp Definition
°C
Dew Point Temp Definition
°C
Rel Hum Definition
%
Wind Dir Definition
10's deg

Wind Spd Definition
km/h
Visibility Definition
km
Stn Press Definition
kPa
Hmdx Definition


Wind Chill Definition


Weather Definition


TIME
00:00 5.3 -0.2 68 32 15 14.5 99.45     LegendNANA
01:00 5.1 0.0 70 34 24 14.5 99.38     LegendNANA
02:00 5.0 0.3 72 32 26 14.5 99.32     LegendNANA
03:00 4.7 0.7 75 32 24 14.5 99.26     Rain
04:00 4.6 0.8 76 32 20 14.5 99.27     LegendNANA
05:00 4.6 0.5 75 32 19 14.5 99.17     LegendNANA
06:00 4.6 0.8 76 32 20 14.5 99.15     LegendNANA
07:00 4.4 1.0 78 32 13 14.5 99.07     LegendNANA
08:00 4.8 0.8 75 33 22 14.5 98.99     LegendNANA
09:00 5.1 0.4 72 32 33 14.5 98.95     LegendNANA
10:00 5.3 0.5 71 32 32 14.5 98.93     LegendNANA
11:00 5.2 0.4 71 31 17 14.5 98.92     LegendNANA
12:00 5.1 -0.1 69 32 20 14.5 98.84     LegendNANA
13:00 6.1 0.4 67 33 24 14.5 98.80     LegendNANA
14:00 6.2 0.2 65 32 32 14.5 98.76     LegendNANA
15:00 6.3 -0.2 63 32 30 14.5 98.79     LegendNANA
16:00 5.9 0.4 68 31 26 14.5 98.79     Rain
17:00 6.5 -0.4 61 32 33 14.5 98.77     LegendNANA
18:00 6.5 -1.1 58 31 22 14.5 98.79     Snow
19:00 6.4 -1.6 56 32 28 14.5 98.75     Snow
20:00 5.5 -1.8 59 32 35 14.5 98.73     Snow
21:00 5.0 -2.3 59 31 28 14.5 98.74     Snow
22:00 5.0 -2.7 57 31 28 14.5 98.75     Snow
23:00 4.9 -2.4 59 31 35 14.5 98.75     Snow

Notes on Data Quality.

Legend

  • E = Estimated
  • M = Missing
  • NA = Not Available
  • ‡ = Partner data that is not subject to review by the National Climate Archives
Date modified: